This is the latest recevied weather packets stored in our database for station/object K8GLX. If no packets are shown the sender has not sent any weather packets the latest 10 day(s).
| Time | Temp. | Humidity | Pressure | Rain* | Wind** | Luminosity | Snow |
|---|---|---|---|---|---|---|---|
| 1777337534 | 21.11° C | 40% | 1013.7 hPa | 0 mm | - | 0 W/m² | - |
| 1777337348 | 21.11° C | 40% | 1013.8 hPa | 0 mm | - | 0 W/m² | - |
| 1777337060 | 21.11° C | 40% | 1014.1 hPa | 0 mm | - | 0 W/m² | - |
| 1777336628 | 21.11° C | 40% | 1014.1 hPa | 0 mm | - | 0 W/m² | - |
| 1777336460 | 21.11° C | 40% | 1014.3 hPa | 0 mm | - | 0 W/m² | - |
| 1777336028 | 21.11° C | 40% | 1014.5 hPa | 0 mm | - | 0 W/m² | - |
| 1777335734 | 21.67° C | 39% | 1014.5 hPa | 0 mm | - | 0 W/m² | - |
| 1777335427 | 21.67° C | 39% | 1014.5 hPa | 0 mm | - | 0 W/m² | - |
| 1777335133 | 21.67° C | 39% | 1014.7 hPa | 0 mm | - | 2 W/m² | - |
| 1777334831 | 21.67° C | 39% | 1014.4 hPa | 0 mm | - | 3 W/m² | - |
| 1777334534 | 21.67° C | 39% | 1014.6 hPa | 0 mm | - | 5 W/m² | - |
| 1777334228 | 21.67° C | 38% | 1014.3 hPa | 0 mm | - | 7 W/m² | - |
| 1777333934 | 21.67° C | 38% | 1014.5 hPa | 0 mm | - | 9 W/m² | - |
| 1777333628 | 22.22° C | 38% | 1014.6 hPa | 0 mm | - | 13 W/m² | - |
| 1777333334 | 22.22° C | 38% | 1014.6 hPa | 0 mm | - | 17 W/m² | - |
| 1777333028 | 22.22° C | 37% | 1014.6 hPa | 0 mm | - | 20 W/m² | - |
| 1777332733 | 22.22° C | 37% | 1014.7 hPa | 0 mm | - | 25 W/m² | - |
| 1777332427 | 22.22° C | 37% | 1014.7 hPa | 0 mm | - | 30 W/m² | - |
| 1777332261 | 22.22° C | 37% | 1014.6 hPa | 0 mm | - | 34 W/m² | - |
| 1777331828 | 22.22° C | 36% | 1014.6 hPa | 0 mm | - | 39 W/m² | - |
| 1777331661 | 22.22° C | 36% | 1015 hPa | 0 mm | - | 45 W/m² | - |
| 1777331228 | 22.22° C | 36% | 1014.7 hPa | 0 mm | - | 52 W/m² | - |
| 1777330934 | 22.22° C | 36% | 1014.8 hPa | 0 mm | - | 60 W/m² | - |
| 1777330628 | 22.22° C | 35% | 1015 hPa | 0 mm | - | 68 W/m² | - |
| 1777330461 | 22.78° C | 35% | 1015 hPa | 0 mm | - | 76 W/m² | - |
* Rain latest hour (hover to see other rain measurements)
** Current wind speed in m/s (hover to see current wind gust speed)